Regional Weather Roundup
Issued by NWS Pendleton, OR

Home | Current Version | Previous Version | Text Only | Print | Product List | Glossary On
Versions: 1 2 3 4 5 6 7 8 9 10 11 12 13 14 15 16 17 18 19 20 21 22 23 24 25 26 27 28 29 30 31 32 33 34 35 36 37 38 39 40 41 42 43 44 45 46 47 48 49 50
000
ASUS46 KPDT 280425
RWRPDT
PENDLETON REGIONAL WEATHER ROUNDUP
NATIONAL WEATHER SERVICE PENDLETON OREGON
800 PM PST THU NOV 27 2014

NOTE: FAIR INDICATES FEW OR NO CLOUDS BELOW 12,000 FEET WITH NO
SIGNIFICANT WEATHER AND/OR OBSTRUCTIONS TO VISIBILITY.

# INDICATES UNOFFICIAL STATION AND DATA

WAZ520-280510-
EAST SLOPES OF WASHINGTON CASCADES

CITY            SKY/WX      TMP DP  RH  WIND    PRES   REMARKS
#BULLFROG 2SW   N/A         42  42  100 S3      27.35F
#BUMPING DAM    N/A         44  N/A N/A S6      N/A
#CLE ELUM HS    N/A         39  38  96  CALM    29.72S
#CLE ELUM 2NW   N/A         37  37  100 CALM    N/A
#CLE ELUM LAKE  N/A         47  41  79  NW2     29.70F
#CLIFFDEL 2NW   N/A         46  39  76  N2      N/A
#GLENWOOD       N/A         48  47  96  S1      29.81F
#MANASTASH CYN  N/A         34  31  89  CALM    29.73F
#NELSON         N/A         37  36  96  CALM    29.78S
#NELSON 3SW     N/A         37  36  96  CALM    29.97F
#NILE           N/A         37  36  96  CALM    29.02F
#RONALD 2NW     N/A         45  42  89  CALM    29.62F
#SNOWDEN        N/A         48  44  86  CALM    N/A
#TEANAWAY 4NE   N/A         41  41  100 CALM    N/A
#TROUT LAKE HS  N/A         50  49  96  CALM    N/A
#TROUT LAKE 1NE N/A         50  46  86  CALM    29.83F
$$

WAZ521-280510-
SIMCOE HIGHLANDS

CITY            SKY/WX      TMP DP  RH  WIND    PRES   REMARKS
#BICKLETON HS   N/A         48  42  80  W21G29  29.91F WCI 41
#CENTERVILLE 4W N/A         50  47  89  NW1     29.60F
#CENTERVILLE 1SWN/A         49  46  89  NW5     29.81F
#GOLDENDALE     N/A         49  48  96  W1      N/A
#GOLDENDALE 1NE N/A         50  49  96  W3      N/A
#GOLDENDALE 1S  N/A         48  47  96  NW1     29.83F
#GOLDENDALE 5WNWN/A         50  47  89  NW3     29.81F
#GOODNOE HILLS  N/A         54  46  74  SW14    N/A
#LYLE 6NE       N/A         50  48  93  CALM    29.81F
$$

WAZ026-280510-
KITTITAS VALLEY

CITY            SKY/WX      TMP DP  RH  WIND    PRES   REMARKS
ELLENSBURG AP   PTCLDY      43  39  86  NE7     29.74S
#ELLENSBURG CWU N/A         41  39  93  N2      29.73S
#ELLENSBURG 3NE N/A         40  38  92  NE3     29.75
#ELLENSBURG     N/A         43  43  100 W1      N/A
#ELLENSBURG 1E  N/A         39  37  92  CALM    N/A
#KITTITAS 4N    N/A         40  36  85  E3      29.79F
#KITTITAS 3S    N/A         35  34  96  CALM    29.76F
#THORP 6N       N/A         47  42  83  CALM    29.77S
$$

WAZ027-280510-
YAKIMA VALLEY

CITY            SKY/WX      TMP DP  RH  WIND    PRES   REMARKS
SUNNYSIDE AP    N/A         54  45  71  S10     29.80F
YAKIMA AIRPORT  MOCLDY      56  44  64  S21G30  29.75F
YAKIMA-VAGABOND PTCLDY      52  44  74  S17     29.76F
#DONALD 2NE     N/A         54  41  61  N5      28.63F
#GRANDVIEW      N/A         56  44  64  W3      29.80F
#MABTON         N/A         58  48  69  S9      29.80S
#MOXEE 2E       N/A         54  34  47  S16     29.71F
#NACHES 2SW     N/A         52  41  66  SW2     29.75S
#OUTLOOK DOT    N/A         N/A N/A N/A S5      N/A
#SELAH 8E       N/A         49  42  77  S17G26  N/A    WCI 43
#TERRACE HTS    N/A         52  45  77  SE3     29.72F
#TOPPENISH      N/A         59  45  60  CALM    29.68F
#WAPATO 4NE     N/A         54  41  61  N5      28.63F
#W YAKIMA       N/A         53  44  71  SW3     29.73F
#WHITE SWAN 5E  N/A         53  44  71  CALM    29.76F
#WILEY CITY 3W  N/A         55  43  64  W6      29.75F
$$

WAZ028-280510-
LOWER COLUMBIA BASIN...WASHINGTON

CITY            SKY/WX      TMP DP  RH  WIND    PRES   REMARKS
PASCO           MOCLDY      57  48  72  S8      29.82S
PROSSER AWOS    N/A         57  46  67  S8      29.84S
RICHLAND AWOS   CLOUDY      59  46  62  SW10    29.81S
#BASIN CITY 5SW N/A         58  47  67  SW5     29.76F
#BENTON CITY    N/A         58  47  67  SW12G25 29.70F
#CONNELL 5N     N/A         54  46  74  SW14    29.76F
#CONNELL 5NW    N/A         54  46  74  SW14    29.73F
#ELTOPIA 6NW    N/A         58  47  67  S17G32  28.74F
#KAHLOTUS       N/A         55  47  74  W26G39  29.78S
#KENNEWICK      N/A         42  42  100 S3      27.35F
#KENNEWICK 3S   N/A         55  47  74  CALM    29.81F
#PATERSON       N/A         55  48  77  W1      29.81S
#PROSSER        N/A         58  45  62  SW9     29.80S
#SAGEMOOR 2W    N/A         57  48  72  CALM    29.65F
#TOUCHET 2S     N/A         55  45  69  W2      29.81R
#WEST PASCO     N/A         58  48  69  S2      29.81F
$$

WAZ029-280510-
FOOTHILLS OF THE BLUES...WASHINGTON

CITY            SKY/WX      TMP DP  RH  WIND    PRES   REMARKS
WALLA WALLA AP  CLOUDY      58  44  60  W7      29.83S
#COLLEGE PLACE  N/A         58  43  57  W7      29.84S
#DAYTON SCHOOL  N/A         58  40  51  SW2     29.83S
#LOWDEN 2SE     N/A         57  47  69  W2      29.79S
#PLEASANT VIEW 1N/A         52  46  80  SW12    29.84S
#PRESCOTT       N/A         56  47  72  W2      29.80F
#SUDBURY        N/A         59  N/A N/A CALM    N/A
#WHITMAN COLLEGEN/A         59  45  60  W3      29.86F
#WAITSBURG 5S   N/A         55  46  72  SW9     29.90R
#WAITSBURG 8N   N/A         54  30  40  S10     29.74F
#WALLA WALLA 5E N/A         61  42  50  S6      N/A
#WALLA WALLA U  N/A         60  46  60  W2      29.82S
$$

WAZ030-280510-
BLUE MOUNTAINS...WASHINGTON

CITY            SKY/WX      TMP DP  RH  WIND    PRES   REMARKS
$$

ORZ009-041-WAZ024-280510-
COLUMBIA RIVER GORGE

CITY            SKY/WX      TMP DP  RH  WIND    PRES   REMARKS
HOOD RIVER AP   CLOUDY      52  50  93  CALM    29.85F
THE DALLES AP   CLOUDY      53  49  86  CALM    29.84F
#ARLINGTON AIRPON/A         53  47  80  SW5     29.99S
#CELILO DOT     N/A         54  46  74  SW1     N/A
#MARYHILL 2W    N/A         58  48  69  W7      N/A
#MOSIER 1S      N/A         50  46  86  SW6     29.88S
#MURDOCK        N/A         56  51  83  NW5     29.85F
#RUFUS DOT      N/A         59  45  60  W15     N/A

$$

ORZ510-280510-
NORTH CENTRAL OREGON

CITY            SKY/WX      TMP DP  RH  WIND    PRES   REMARKS
#CHENOWITH 1W   N/A         49  47  93  NW10    N/A
#COW CYN RST AREN/A         50  39  66  S9      N/A
#DUFUR 9E       N/A         53  43  69  SW30G40 29.85F
#GRASS VALLEY   N/A         50  44  80  S3      N/A
#GRASS VALLEY 1SN/A         49  44  83  SW9     29.85F
#KENT DOT       N/A         50  35  56  S14     N/A
#MAUPIN SCHOOL  N/A         55  46  72  CALM    28.73F
#MORO SCHOOL    N/A         53  48  83  SW7     29.86F
#SHANIKO 5WSW   N/A         47  33  58  S22     N/A    WCI 39
#SHANIKO 4NW    N/A         47  38  71  S13G32  29.86F WCI 41
#TYGH VALLEY 2NEN/A         57  45  64  W6      29.83F
#WAPANITIA AIRPON/A         55  45  69  CALM    29.84F
#WASCO DOT      N/A         51  46  83  W6      N/A
#WASCO 5NE      N/A         50  45  83  N3      29.83F
$$

ORZ511-280510-
CENTRAL OREGON

CITY            SKY/WX      TMP DP  RH  WIND    PRES   REMARKS
BEND AIRPORT    MOCLDY      48  39  71  SW17    29.94F WCI 42
MADRAS AIRPORT  CLOUDY      52  41  66  S14     29.91F
PRINEVILLE AP   MOCLDY      50  39  66  S9      29.94F
REDMOND AIRPORT MOCLDY      49  39  68  S20G25  29.91F WCI 42
#BEND 1SW       N/A         42  40  93  SW1     N/A
#BEND-AWBREY    N/A         45  41  86  NE15    29.89F WCI 38
#BEND-KIM LN    N/A         46  41  83  SW10    29.89R
#CROOKED RVR RANN/A         51  41  68  SW2     29.85F
#CULVER         N/A         51  41  68  S7      29.85F
#LAKE BILLY CHINN/A         51  27  39  S3      29.97S
#POWELL BUTTE 3EN/A         51  38  61  S6      N/A
#POWELL BUTTE   N/A         50  38  63  SW6     29.57F
#PRINEVILLE 3N  N/A         51  40  66  E3      29.87F
#WARM SPRINGS   N/A         57  43  59  NE2     29.84F


ORZ509-280510-
EAST SLOPES OF OREGON CASCADES

CITY            SKY/WX      TMP DP  RH  WIND    PRES   REMARKS
#BLUE BOX PASS  N/A         43  -7  11  W1      N/A
#BLACK BUTTE RNCN/A         42  40  93  CALM    29.88F
#CAMP SHERMAN   N/A         40  38  92  CALM    29.90F
#LA PINE DOT    N/A         41  39  93  SE5     N/A
#LA PINE 4NW    N/A         40  37  89  CALM    30.01F
#LAVA BUTTE DOT N/A         40  39  96  S5      N/A
#MT BACHELOR-MIDN/A         32  32  100 S38G60  N/A    WCI 16
#SISTERS AIRPOR N/A         50  44  80  CALM    29.91S
#SISTERS ODOT   N/A         51  N/A N/A S2      N/A
#SISTERS 3N     N/A         48  36  63  NE3     29.89F
#SUNRIVER       N/A         41  40  96  SE2     29.84F
#SUNRIVER AP    N/A         51  49  93  CALM    29.85S
#SUTTLE LK DOT  N/A         38  38  100 W35G59  N/A    WCI 25
#TUMALO 3W      N/A         51  39  63  SW10    29.72F
#WANOGA BUTTE D N/A         35  N/A N/A W14     N/A    WCI 26

$$

ORZ044-280510-
LOWER COLUMBIA BASIN...OREGON

CITY            SKY/WX      TMP DP  RH  WIND    PRES   REMARKS
HERMISTON       CLOUDY      57  47  69  W9      29.82F
#BOARDMAN 3W    N/A         52  48  86  SE1     29.53F
#BOARDMAN 8SW   N/A         54  48  80  W2      29.82F
#ECHO 8SW       N/A         56  47  72  W1      29.80S
#IONE SCHOOL    N/A         58  42  55  CALM    29.83S
#IRRIGON 4NW    N/A         54  49  83  W3      N/A
#UMATILLA SCHOOLN/A         52  51  96  CALM    29.84F
#UMATILLA       N/A         56  46  69  CALM    29.80S
$$

ORZ507-280510-
NORTHERN FOOTHILLS OF THE BLUES

CITY            SKY/WX      TMP DP  RH  WIND    PRES   REMARKS
PENDLETON AIRPT CLOUDY      59  40  49  SW14    29.83S
#ADAMS 3WNW     N/A         57  45  64  S7      29.82F
#ATHENA         N/A         58  43  57  S5      29.83F
#CAYUSE         N/A         62  43  50  S14     29.79F
#HELIX SCHOOL   N/A         55  43  64  SW12    29.82F
#HELIX 3N       N/A         54  43  66  SW10    29.80F
#HOLDMAN 5SE    N/A         53  45  74  CALM    29.84F
#HOLDMAN 6E     N/A         55  42  61  N10     29.64F
#M-F FERNDALE   N/A         60  43  53  CALM    29.82F
#M-F GROVE ELEM N/A         61  40  46  S2      29.81F
#M-FREEWATER 5SEN/A         62  43  50  SE2     29.83F
#PENDLETON DNTN N/A         63  37  38  SW9     28.64S
#PDT AQUATIC CTRN/A         62  40  44  S6      29.85S
#PENDLETON 5NE  N/A         60  44  55  SW7     29.80F
#PDT SUNRIDGE   N/A         61  43  51  S7      29.84F
#PENDLETON 7NW  N/A         55  43  64  CALM    27.08F
#TUTUILLA       N/A         60  43  53  S7      29.83S
#UMAPINE 2E     N/A         60  46  60  SW1     29.79F
#WESTON SCHOOL  N/A         59  37  44  SW9     29.81F

$$

ORZ508-280510-
SOUTHERN FOOTHILLS OF THE BLUES

CITY            SKY/WX      TMP DP  RH  WIND    PRES   REMARKS
LEXINGTON       MOCLDY      57  43  59  S6      29.85F
#AJAX           N/A         55  37  51  S12G25  29.79S
#CONDON SCHOOL  N/A         52  41  66  VRB2G38 29.82F
#CONDON 5W      N/A         50  39  66  S20G33  29.83F
#FOSSIL SCHOOL  N/A         55  40  57  SW8     29.86F
#HEPPNER EOC    N/A         58  41  53  S13G26  29.76S
#HEPPNER 4NE    N/A         53  40  61  S2      29.80S
#LEXINGTON 2SE  N/A         59  41  51  CALM    29.80S
#MIKKALO        N/A         57  40  53  W8      29.83F
#OLEX 4N        N/A         56  46  69  W5      29.82F
#RUGGS 5NE      N/A         54  38  55  S22G30  30.01F
#RUGGS 2SW      N/A         55  40  57  SW15G24 29.82F

$$

ORZ502-503-280510-
BLUE MOUNTAINS

CITY            SKY/WX      TMP DP  RH  WIND    PRES   REMARKS
MEACHAM         CLOUDY      51  38  61  CALM    29.90F
#BATTLE MTN DOT N/A         46  41  83  SE10    N/A
#HARDMAN 10S    N/A         45  39  79  S9      29.98F
#HEPPNER 15SE   N/A         47  39  74  SE3     29.78F
#LADD CYN SMT   N/A         45  38  76  SE18    N/A    WCI 37
#LADD CREEK ODOTN/A         48  40  74  SW10    N/A
#LONG CREEK HS  N/A         49  43  80  SW23G37 29.87F WCI 42
#N POWDER DOT   N/A         46  41  83  SE20    N/A    WCI 38
#PIKES PEAK     N/A         53  39  59  SW26G33 27.99S
#TOLLGATE       N/A         42  40  93  SW6     29.85F
#TROY SCHOOL    N/A         48  44  86  CALM    29.73F
#UKIAH          N/A         51  42  71  S6      29.96S
#WESTON 4E      N/A         52  41  66  SE7     29.76F
$$

ORZ505-280510-
JOHN DAY BASIN

CITY            SKY/WX      TMP DP  RH  WIND    PRES   REMARKS
JOHN DAY        LGT RAIN    48  40  74  SW7     30.01R
#DAYVILLE SCHOOLN/A         54  40  59  S5      29.95R
#MONUMENT HS    N/A         50  42  74  NE2     29.93S
#WINLOCK        N/A         50  42  74  N3      30.00F
$$

ORZ506-280510-
OCHOCO AND JOHN DAY HIGHLANDS

CITY            SKY/WX      TMP DP  RH  WIND    PRES   REMARKS
#BUCK CREEK DOT N/A         48  41  77  E3      N/A
#HORSE RIDGE DO N/A         49  37  63  SW17G29 N/A    WCI 43
#KEYES SMT DOT  N/A         46  37  71  SE13G29 N/A    WCI 40
#PINE MTN OBS   N/A         37  34  89  S14G36  N/A    WCI 28
#PRAIRIE CITY   N/A         43  39  86  CALM    30.06S
#SENECA         N/A         41  N/A N/A S7      N/A
#SENECA 9NW     N/A         37  36  96  CALM    30.07F
$$

ORZ049-280510-
GRANDE RONDE VALLEY

CITY            SKY/WX      TMP DP  RH  WIND    PRES   REMARKS
LA GRANDE       CLOUDY      52  37  56  S14     29.92F
#COVE           N/A         53  47  80  SE10    30.03S
#COVE SCHOOL    N/A         53  42  66  E9      29.90F
#COVE 6NW       N/A         50  42  74  SE5     29.93F
#ELGIN 3N       N/A         51  40  66  S14     29.63F
#ELGIN 1E       N/A         51  42  71  S3      N/A
#IMBLER SCHOOL  N/A         49  42  77  S12     29.88F WCI 44
#ISLAND CITY 4N N/A         53  50  89  CALM    29.85F
#LADD CYN DOT   N/A         49  40  71  S25G35  N/A    WCI 41
#UNION 1S       N/A         51  42  71  S8G24   29.82F
$$

ORZ050-280510-
WALLOWA COUNTY

CITY            SKY/WX      TMP DP  RH  WIND    PRES   REMARKS
JOSEPH AIRPORT  LGT RAIN    48  39  71  N5      29.91F
#ENTERPRISE AP  N/A         51  37  59  SE3     29.85S
#ENTERPRISE HS  N/A         49  40  71  CALM    29.92F
#IMNAHA SCHOOL  N/A         58  40  51  S15G25  29.88F
#IMNAHA 10S     N/A         55  38  53  SW10G24 29.91F
#JOSEPH 3N      N/A         47  40  76  E5      29.93F
#JOSEPH 3W      N/A         46  38  73  CALM    29.77F
#LOSTINE        N/A         51  41  68  S7      29.68F
#MT HOWARD 8000 N/A         32  30  92  S14G30  29.93F WCI 22
#PROMISE 1S     N/A         47  41  79  E2      29.94F
#SHEEP RDG 7000 N/A         38  33  82  CALM    29.83F
#WALLOWA SCHOOL N/A         52  43  71  N1      30.83F



$$



USA.gov is the U.S. government's official web portal to all federal, state and local government web resources and services.